{"data":{"norad_id":66840,"intl_designator":"2025-280V","name":"STARLINK-35837","alt_names":[],"object_type":"PAYLOAD","status":"ACTIVE","operator":null,"country":"US","launch_date":"2025-12-02","launch_site_code":"AFWTR","launch_vehicle":null,"mission":null,"orbit_class":"UNKNOWN","rcs_meters":null,"size_class":null,"mass_kg":null,"dimensions":null,"purposes":["comms"],"wikipedia_slug":null,"has_3d_model":false,"image_url":null,"decayed_at":null,"tle_current":{"epoch":"2026-09-20T05:28:30.770688Z","epoch_age_seconds":107359,"freshness":"FRESH","line1":"1 66840U 25280V   26263.22813392  .00007333  00000+0  62167-3 0  9990","line2":"2 66840  70.0003 204.0448 0003154 263.7036  96.3763 14.98334160 45213","mean_motion":14.9833416,"eccentricity":0.0003154,"inclination_deg":70.0003,"raan_deg":204.0448,"arg_perigee_deg":263.7036,"mean_anomaly_deg":96.3763,"bstar":0.00062167,"rev_number":4521,"period_min":96.106732292615,"perigee_km":569.85093973698,"apogee_km":574.2351132977,"semimajor_km":6950.1800265173,"source":"CELESTRAK","updated_at":"2026-09-21T09:00:36.023473Z"}}}